[[{"header":{"parameterUnit":"m.s-1","parameterCategory":1,"la1":30.2991,"la2":30.254,"lo1":-89.0895,"lo2":-89.0444,"dy":0.0017,"dx":0.0017,"nx":28,"ny":28,"refTime":"2024-10-19T09:00:00:Z","depth":0,"parameterNumber":2,"parameterNumberName":"U-component_of_WINDS"},"data":[0,0,0,0,0,0,0,0,0,0,0,0,0,0,0,0,0,0,0,0,0,0,0,0,0,0,0,0,0,0,0,0,0,0,0,0,0,0,0,0,0,0,0,0,0,0,0,0,0,0,0,0,0,0,0,0,0,0,-4.9736,-4.9736,0,-4.9796,-4.9796,-4.9797,-4.9602,-4.9596,-4.959,-4.9584,-4.965,-4.9657,-4.9665,0,0,0,0,0,0,0,0,0,0,0,0,0,-4.9456,-4.9462,-4.9736,-4.9736,-4.9737,-4.9796,-4.9796,-4.9797,-4.9603,-4.9595,-4.9588,-4.9581,-4.9648,-4.9657,-4.9665,0,0,0,0,0,0,0,0,0,0,0,0,0,-4.9553,-4.9464,-4.9736,-4.9647,-4.964,-4.9795,-4.9796,-4.9797,-4.9604,-4.9595,-4.9586,-4.9578,-4.9645,-4.9656,-4.9667,-4.9912,0,0,-4.97,-4.9705,0,0,0,0,0,0,0,0,-4.9548,-4.9563,-4.9659,-4.9653,-4.9645,-4.9682,-4.9722,-4.9836,-4.9606,-4.9618,-4.9584,-4.9574,-4.9668,-4.9677,-4.9708,-4.9915,-4.9918,-4.9701,-4.9708,-4.9712,-4.9715,0,0,0,0,0,0,0,-4.9541,-4.956,-4.9759,-4.9661,-4.9652,-4.9605,-4.9609,-4.9743,-4.9692,-4.9616,-4.9602,-4.9612,-4.9663,-4.9698,-4.9708,-4.9919,-4.9701,-4.971,-4.9717,-4.9721,-5.033,-5.034,0,0,0,0,0,0,-4.9545,-4.9555,-4.9757,-4.9761,-4.9573,-4.9618,-4.9622,-4.9679,-4.969,-4.9683,-4.9619,-4.9602,-4.9683,-4.9695,-4.971,-4.9998,-4.9712,-4.9722,-4.9729,-5.0321,-5.0332,-5.0343,0,0,0,0,0,0,-4.954,-4.9565,-4.9755,-4.9655,-4.9675,-4.9632,-4.9698,-4.9685,-4.9719,-4.9692,-4.9683,-4.9664,-4.9677,-4.9694,-4.9863,-4.9997,-4.9727,-4.9737,-5.031,-5.0324,-5.0338,-5.0577,0,0,0,0,0,0,-4.9533,-4.9565,-4.9657,-4.9658,-4.9681,-4.9907,-4.9706,-4.9693,-4.9738,-4.9717,-4.9732,-4.9726,-4.9671,-4.9847,-4.9874,-5.0008,-4.9746,-5.0297,-5.0316,-5.0333,-5.0557,-5.0598,-5.0633,0,0,0,0,0,-4.9524,-4.9723,-4.9663,-4.9688,-4.9795,-4.9915,-4.9929,-4.986,-4.975,-4.9843,-4.9825,-4.9725,-4.9978,-4.9866,-4.9894,-5.0034,-5.0289,-5.0311,-5.0332,-5.054,-5.059,-5.0632,0,0,0,0,0,0,-4.9741,-4.9722,-4.9655,-4.986,-4.9891,-4.9882,-4.9997,-4.9915,-4.9979,-4.9957,-4.987,-4.9875,-5.006,-5.0063,-4.9939,-5.0271,-5.0114,-5.0143,-5.0263,-5.031,-5.0347,-5.0344,-4.9755,0,0,0,0,0,-4.9813,-4.991,-4.9888,-5.0072,-5.009,-5.0042,-5.0091,-5.0036,-5.0065,-5.0077,-5.0072,-5.0105,-5.0191,-5.025,-5.0329,-5.0555,-5.0556,-5.0665,-5.0703,-5.0734,-5.076,-5.088,-5.0929,-5.0414,-5.0414,-5.0413,0,0,-4.9962,-4.9963,-5.0031,-5.0115,-5.0133,-5.0237,-5.0054,-5.0172,-5.0249,-5.0095,-5.0254,-5.0252,-5.0283,-5.0482,-5.0569,-5.049,-5.0902,-5.0761,-5.0787,-5.0796,-5.0908,-5.0956,-5.1,-5.0429,-5.0426,-5.0424,0,0,-5.0288,-5.0299,-5.0452,-5.0473,-5.05,-5.0466,-5.0503,-5.0507,-5.0499,-5.0656,-5.0543,-5.0633,-5.0784,-5.0811,-5.0845,-5.1179,-5.109,-5.1207,-5.1406,-5.1524,-5.1565,-5.16,-5.1721,-5.1765,-5.1232,-5.1233,-5.1233,0,-5.0471,-5.0622,-5.0542,-5.0668,-5.0709,-5.0572,-5.0727,-5.0752,-5.0805,-5.0837,-5.0746,-5.0932,-5.0943,-5.1147,-5.1228,-5.1259,-5.13,-5.1206,-5.1565,-5.16,-5.1632,-5.1746,-5.1791,-5.1247,-5.1245,-5.1244,-5.1243,0,-5.0846,-5.0953,-5.1074,-5.1126,-5.118,-5.1321,-5.1263,-5.1327,-5.1267,-5.1243,-5.1405,-5.1413,-5.149,-5.1534,-5.1477,-5.173,-5.168,-5.1579,-5.142,-5.1696,-5.1802,-5.1845,-5.1267,-5.1262,-5.1258,-5.1255,0,0,-5.1313,-5.1317,-5.1363,-5.1385,-5.1405,-5.1486,-5.162,-5.1694,-5.1752,-5.1792,-5.1903,-5.2033,-5.1939,-5.1978,-5.1922,-5.2026,-5.2291,-5.1911,-5.1911,-5.1983,-5.2571,-5.2648,-5.27,-5.2231,-5.2239,-5.2245,-5.2569,0,-5.1634,-5.1862,-5.1793,-5.2023,-5.2121,-5.1992,-5.2108,-5.2134,-5.2115,-5.2196,-5.2174,-5.2268,-5.2137,-5.2159,-5.2255,-5.2238,-5.2408,-5.2214,-5.2335,-5.234,-5.2333,-5.2754,-5.2836,-5.3142,-5.2609,-5.2616,-5.2621,0,-5.204,-5.2094,-5.2334,-5.2336,-5.2374,-5.2481,-5.2542,-5.2621,-5.2647,-5.2625,-5.2668,-5.259,-5.2723,-5.2562,-5.2743,-5.2613,-5.2658,-5.2657,-5.2667,-5.2677,-5.2499,-5.2778,-5.3237,-5.3284,-5.2685,-5.268,-5.2675,0,-5.2357,-5.2491,-5.2651,-5.2674,-5.268,-5.2758,-5.2764,-5.2781,-5.283,-5.2884,-5.2915,-5.2985,-5.3024,-5.308,-5.3024,-5.2911,-5.3215,-5.3049,-5.3202,-5.3204,-5.3274,-5.3271,-5.3749,-5.3301,-5.33,-5.33,-5.3299,0,-5.2724,-5.2876,-5.2794,-5.2893,-5.3059,-5.2979,-5.3146,-5.3138,-5.3154,-5.325,-5.3142,-5.3235,-5.3154,-5.324,-5.3197,-5.3355,-5.3373,-5.336,-5.3347,-5.3371,-5.3373,-5.3401,-5.3379,-5.3312,-5.3309,-5.3307,-5.3305,0,-5.3109,-5.3059,-5.3225,-5.3217,-5.3218,-5.3342,-5.3335,-5.3427,-5.3398,-5.3521,-5.3546,-5.3503,-5.3598,-5.3546,-5.3645,-5.3616,-5.3821,-5.3778,-5.3812,-5.3802,-5.3958,-5.3945,-5.4473,-5.4538,-5.4047,-5.4052,-5.4056,0,-5.3347,-5.346,-5.3463,-5.3519,-5.3532,-5.3623,-5.3672,-5.3596,-5.3651,-5.3689,-5.3777,-5.3862,-5.3927,-5.4085,-5.4064,-5.4138,-5.4098,-5.4277,-5.4109,-5.4129,-5.4102,-5.4097,-5.4108,-5.4313,-5.4318,-5.4323,-5.4327,0,-5.3775,-5.3744,-5.3817,-5.3883,-5.3943,-5.3991,-5.403,-5.4082,-5.4007,-5.4074,-5.4169,-5.4219,-5.4319,-5.4406,-5.447,-5.4477,-5.4392,-5.4379,-5.4419,-5.4446,-5.4461,-5.4456,-5.3907,-5.4368,-5.4364,-5.4361,-5.4359,-5.4357,-5.4094,-5.4189,-5.4206,-5.429,-5.4311,-5.435,-5.4436,-5.4417,-5.4495,-5.4569,-5.4519,-5.4632,-5.4654,-5.4731,-5.475,-5.4838,-5.4766,-5.4824,-5.4838,-5.4854,-5.4876,-5.4445,-5.4849,-5.4848,-5.4847,-5.4846,-5.4845,0,-5.4518,-5.4521,-5.46,-5.4657,-5.4724,-5.4634,-5.4672,-5.4735,-5.4835,-5.4862,-5.4927,-5.5036,-5.5119,-5.5104,-5.5179,-5.5253,-5.5215,-5.5275,-5.527,-5.5274,-5.4935,-5.4894,-5.5305,-5.5304,-5.5304,-5.5304,-5.5304,-5.5304,-5.4746,-5.4902,-5.4873,-5.5038,-5.5041,-5.5149,-5.5179,-5.5214,-5.5235,-5.5362,-5.543,-5.5418,-5.5428,-5.5503,-5.5576,-5.5569,-5.5603,-5.5679,-5.5658,-5.5343,-5.5297,-5.5254,-5.5215,-5.5686,-5.5687,-5.5989,-5.5992,-5.5994]},{"header":{"parameterUnit":"m.s-1","parameterCategory":1,"la1":30.2991,"la2":30.254,"lo1":-89.0895,"lo2":-89.0444,"dy":0.0017,"dx":0.0017,"nx":28,"ny":28,"refTime":"2024-10-19T09:00:00:Z","depth":0,"parameterNumber":3,"parameterNumberName":"V-component_of_WINDS"},"data":[0,0,0,0,0,0,0,0,0,0,0,0,0,0,0,0,0,0,0,0,0,0,0,0,0,0,0,0,0,0,0,0,0,0,0,0,0,0,0,0,0,0,0,0,0,0,0,0,0,0,0,0,0,0,0,0,0,0,-2.3993,-2.3993,0,-2.4002,-2.4002,-2.4002,-2.3981,-2.3981,-2.398,-2.3979,-2.3988,-2.3989,-2.399,0,0,0,0,0,0,0,0,0,0,0,0,0,-2.3955,-2.3956,-2.3993,-2.3993,-2.3993,-2.4002,-2.4002,-2.4002,-2.3982,-2.3981,-2.398,-2.3979,-2.3988,-2.3989,-2.399,0,0,0,0,0,0,0,0,0,0,0,0,0,-2.3969,-2.3956,-2.3993,-2.3984,-2.3983,-2.4002,-2.4002,-2.4002,-2.3982,-2.3981,-2.398,-2.3979,-2.3987,-2.3989,-2.399,-2.4018,0,0,-2.3994,-2.3994,0,0,0,0,0,0,0,0,-2.3968,-2.397,-2.3985,-2.3984,-2.3984,-2.399,-2.3992,-2.4007,-2.3982,-2.3982,-2.3979,-2.3978,-2.3989,-2.399,-2.3994,-2.4018,-2.4018,-2.3994,-2.3995,-2.3995,-2.3995,0,0,0,0,0,0,0,-2.3967,-2.3969,-2.3996,-2.3985,-2.3984,-2.3979,-2.3979,-2.3995,-2.3991,-2.3982,-2.3981,-2.3982,-2.3989,-2.3993,-2.3994,-2.4018,-2.3994,-2.3995,-2.3996,-2.3996,-2.4063,-2.4064,0,0,0,0,0,0,-2.3967,-2.3969,-2.3996,-2.3997,-2.3973,-2.398,-2.3981,-2.3989,-2.3991,-2.399,-2.3983,-2.3981,-2.3991,-2.3993,-2.3994,-2.4025,-2.3995,-2.3996,-2.3997,-2.4062,-2.4064,-2.4065,0,0,0,0,0,0,-2.3967,-2.397,-2.3996,-2.3982,-2.3985,-2.3982,-2.3991,-2.3989,-2.3994,-2.3992,-2.3991,-2.3988,-2.3991,-2.3993,-2.4012,-2.4025,-2.3997,-2.3998,-2.4061,-2.4063,-2.4064,-2.4089,0,0,0,0,0,0,-2.3966,-2.397,-2.3981,-2.3983,-2.3986,-2.4013,-2.3991,-2.399,-2.3996,-2.3994,-2.3996,-2.3996,-2.399,-2.401,-2.4013,-2.4027,-2.3999,-2.406,-2.4062,-2.4064,-2.4087,-2.4091,-2.4095,0,0,0,0,0,-2.3964,-2.3988,-2.3982,-2.3985,-2.4,-2.4014,-2.4016,-2.4009,-2.3997,-2.4008,-2.4006,-2.3996,-2.4024,-2.4012,-2.4015,-2.403,-2.4059,-2.4061,-2.4063,-2.4085,-2.409,-2.4095,0,0,0,0,0,0,-2.3988,-2.3988,-2.3981,-2.4006,-2.401,-2.4011,-2.4024,-2.4015,-2.4023,-2.402,-2.4012,-2.4012,-2.4032,-2.4033,-2.402,-2.4056,-2.4039,-2.4042,-2.4054,-2.4059,-2.4063,-2.4062,-2.4,0,0,0,0,0,-2.3996,-2.4008,-2.4007,-2.4029,-2.4032,-2.4028,-2.4034,-2.4028,-2.4032,-2.4034,-2.4033,-2.4037,-2.4047,-2.4053,-2.4062,-2.4087,-2.4086,-2.4098,-2.4102,-2.4106,-2.4108,-2.4119,-2.4124,-2.4072,-2.4072,-2.4072,0,0,-2.4013,-2.4014,-2.4023,-2.4034,-2.4037,-2.4048,-2.4029,-2.4043,-2.4051,-2.4036,-2.4053,-2.4053,-2.4057,-2.4078,-2.4088,-2.4079,-2.4122,-2.4109,-2.4111,-2.4112,-2.4122,-2.4127,-2.4132,-2.4074,-2.4074,-2.4073,0,0,-2.4049,-2.4052,-2.407,-2.4073,-2.4077,-2.4073,-2.4078,-2.4079,-2.4079,-2.4096,-2.4084,-2.4093,-2.4111,-2.4113,-2.4117,-2.4152,-2.4142,-2.4156,-2.4176,-2.4187,-2.4191,-2.4195,-2.4206,-2.421,-2.4158,-2.4158,-2.4158,0,-2.4069,-2.4087,-2.408,-2.4094,-2.4099,-2.4085,-2.4102,-2.4105,-2.4112,-2.4115,-2.4106,-2.4126,-2.4127,-2.4148,-2.4157,-2.4161,-2.4164,-2.4155,-2.4191,-2.4195,-2.4198,-2.4208,-2.4213,-2.416,-2.416,-2.4159,-2.4159,0,-2.411,-2.4123,-2.4137,-2.4143,-2.4149,-2.4165,-2.4159,-2.4166,-2.416,-2.4158,-2.4175,-2.4176,-2.4184,-2.4189,-2.4183,-2.4209,-2.4203,-2.4193,-2.4176,-2.4204,-2.4214,-2.4218,-2.4162,-2.4161,-2.4161,-2.4161,0,0,-2.4162,-2.4163,-2.4168,-2.417,-2.4173,-2.4182,-2.4197,-2.4204,-2.421,-2.4215,-2.4226,-2.424,-2.423,-2.4234,-2.4228,-2.4238,-2.4264,-2.4227,-2.4226,-2.4232,-2.4291,-2.4297,-2.4302,-2.4258,-2.4259,-2.426,-2.429,0,-2.4196,-2.4221,-2.4214,-2.4238,-2.4249,-2.4235,-2.4247,-2.425,-2.4248,-2.4256,-2.4254,-2.4263,-2.425,-2.4252,-2.4262,-2.4259,-2.4276,-2.4257,-2.4267,-2.4267,-2.4265,-2.4307,-2.4315,-2.4343,-2.4294,-2.4294,-2.4295,0,-2.424,-2.4245,-2.4271,-2.427,-2.4274,-2.4286,-2.4291,-2.4299,-2.4302,-2.4299,-2.4303,-2.4295,-2.4308,-2.4292,-2.4309,-2.4297,-2.43,-2.43,-2.4301,-2.43,-2.4282,-2.4306,-2.4352,-2.4356,-2.4301,-2.43,-2.43,0,-2.4272,-2.4287,-2.4303,-2.4305,-2.4306,-2.4313,-2.4314,-2.4315,-2.432,-2.4325,-2.4327,-2.4334,-2.4337,-2.4342,-2.4336,-2.4325,-2.4353,-2.4337,-2.4351,-2.4351,-2.4356,-2.4356,-2.4402,-2.4361,-2.4361,-2.4361,-2.4361,0,-2.431,-2.4326,-2.4317,-2.4327,-2.4343,-2.4335,-2.4352,-2.4351,-2.4352,-2.4361,-2.435,-2.4358,-2.435,-2.4357,-2.4353,-2.4366,-2.4369,-2.4366,-2.4364,-2.4366,-2.4366,-2.4367,-2.4365,-2.4362,-2.4362,-2.4362,-2.4362,0,-2.4349,-2.4344,-2.4361,-2.4359,-2.4359,-2.4371,-2.437,-2.4379,-2.4376,-2.4387,-2.4389,-2.4384,-2.4392,-2.4386,-2.4395,-2.4391,-2.4409,-2.4405,-2.4408,-2.4406,-2.442,-2.4418,-2.4467,-2.4472,-2.443,-2.443,-2.4431,0,-2.4373,-2.4384,-2.4384,-2.4389,-2.439,-2.4398,-2.4403,-2.4395,-2.44,-2.4403,-2.4411,-2.4418,-2.4423,-2.4436,-2.4433,-2.4439,-2.4434,-2.4451,-2.4435,-2.4436,-2.4433,-2.4431,-2.4432,-2.4454,-2.4454,-2.4455,-2.4455,0,-2.4415,-2.4412,-2.4418,-2.4424,-2.4429,-2.4433,-2.4436,-2.4441,-2.4433,-2.4439,-2.4447,-2.4451,-2.4459,-2.4465,-2.447,-2.447,-2.4461,-2.446,-2.4463,-2.4465,-2.4465,-2.4463,-2.4415,-2.4459,-2.4459,-2.4458,-2.4458,-2.4458,-2.4446,-2.4455,-2.4455,-2.4463,-2.4464,-2.4467,-2.4474,-2.4472,-2.4478,-2.4484,-2.4479,-2.4488,-2.4489,-2.4494,-2.4495,-2.4502,-2.4495,-2.45,-2.4501,-2.4502,-2.4503,-2.4465,-2.4503,-2.4503,-2.4502,-2.4502,-2.4502,0,-2.4486,-2.4486,-2.4492,-2.4497,-2.4502,-2.4493,-2.4496,-2.4501,-2.4509,-2.451,-2.4515,-2.4524,-2.453,-2.4527,-2.4532,-2.4538,-2.4534,-2.454,-2.4538,-2.4538,-2.4509,-2.4505,-2.4543,-2.4543,-2.4543,-2.4543,-2.4543,-2.4543,-2.4508,-2.4521,-2.4518,-2.4531,-2.4531,-2.4539,-2.4541,-2.4544,-2.4544,-2.4554,-2.4559,-2.4557,-2.4557,-2.4562,-2.4567,-2.4566,-2.4567,-2.4574,-2.4571,-2.4544,-2.454,-2.4537,-2.4533,-2.4575,-2.4575,-2.4599,-2.46,-2.46]}]]